This is the latest recevied weather packets stored in our database for station/object BX2AEA-13. If no packets are shown the sender has not sent any weather packets the latest 10 day(s).
| Time | Temp. | Humidity | Pressure | Rain* | Wind** | Luminosity | Snow |
|---|---|---|---|---|---|---|---|
| 1777524812 | 30° C | 51% | 1009.1 hPa | 1.27 mm | - | - | - |
| 1777524465 | 30° C | 51% | 1009.2 hPa | 1.27 mm | - | - | - |
| 1777524118 | 30° C | 51% | 1009.1 hPa | 1.27 mm | - | - | - |
| 1777523771 | 30° C | 50% | 1009.4 hPa | 1.27 mm | - | - | - |
| 1777523424 | 30° C | 50% | 1009.3 hPa | 1.27 mm | - | - | - |
| 1777523077 | 30° C | 49% | 1009.5 hPa | 0.76 mm | - | - | - |
| 1777522730 | 30.56° C | 49% | 1009.6 hPa | 0.51 mm | - | - | - |
| 1777522383 | 30.56° C | 49% | 1009.7 hPa | 0.51 mm | - | - | - |
| 1777522036 | 30.56° C | 49% | 1009.7 hPa | 0.25 mm | - | - | - |
| 1777521689 | 30.56° C | 49% | 1009.7 hPa | 0 mm | - | - | - |
| 1777521342 | 30.56° C | 49% | 1009.7 hPa | 0 mm | - | - | - |
| 1777520995 | 30.56° C | 49% | 1009.8 hPa | 0.25 mm | - | - | - |
| 1777520648 | 30.56° C | 49% | 1009.8 hPa | 0.25 mm | - | - | - |
| 1777520301 | 30.56° C | 50% | 1009.8 hPa | 0.51 mm | - | - | - |
| 1777519954 | 30.56° C | 50% | 1009.8 hPa | 0.76 mm | - | - | - |
| 1777519607 | 30.56° C | 51% | 1010.1 hPa | 1.52 mm | - | - | - |
| 1777519260 | 30.56° C | 52% | 1010.1 hPa | 1.78 mm | - | - | - |
| 1777518913 | 30° C | 51% | 1009.9 hPa | 2.54 mm | - | - | - |
| 1777518566 | 30° C | 51% | 1010 hPa | 3.3 mm | - | - | - |
| 1777518219 | 30° C | 50% | 1010 hPa | 3.3 mm | - | - | - |
| 1777517872 | 30° C | 50% | 1010.1 hPa | 3.3 mm | - | - | - |
| 1777517525 | 30° C | 50% | 1010.2 hPa | 2.79 mm | - | - | - |
| 1777517178 | 30° C | 50% | 1010.2 hPa | 2.79 mm | - | - | - |
| 1777516830 | 30° C | 50% | 1010.2 hPa | 2.54 mm | - | - | - |
| 1777516484 | 30° C | 50% | 1010.1 hPa | 2.29 mm | - | - | - |
* Rain latest hour (hover to see other rain measurements)
** Current wind speed in m/s (hover to see current wind gust speed)